When you browse on this site, cookies collect data to enhance your experience and personalize the content and advertising you see.
Visit our Privacy Policy to learn more. By continuing to use the site, you agree to this use of cookies and data.
  • en Suisse
  • Liste des pays
  • À 7 jours
  • Température de l'eau
  • Carte satellitaire
  • Carte météo
  • Widgets météo
  • user-avatar
    Se connecter

    Météo par heure à Pirna

    Ce jour, 20 Juillet, Samedi

    Heure Température Précipitation Vent Pression Humidité
    00:00 +18°C° 0 mm 2 m/s 751 mmHg 87%
    01:00 +18°C° 0 mm 1 m/s 751 mmHg 89%
    02:00 +18°C° 0 mm 1 m/s 751 mmHg 89%
    03:00 +18°C° 0 mm 1 m/s 751 mmHg 89%
    04:00 +18°C° 0 mm 1 m/s 751 mmHg 89%
    05:00 +19°C° 0 mm 1 m/s 751 mmHg 86%
    06:00 +20°C° 0 mm 1 m/s 751 mmHg 82%
    07:00 +22°C° 0 mm 1 m/s 751 mmHg 77%
    08:00 +24°C° 0 mm 1 m/s 751 mmHg 70%
    09:00 +25°C° 0 mm 2 m/s 751 mmHg 63%
    10:00 +26°C° 0 mm 2 m/s 751 mmHg 57%
    11:00 +28°C° 0 mm 2 m/s 750 mmHg 54%
    12:00 +29°C° 0 mm 2 m/s 750 mmHg 51%
    13:00 +30°C° 0 mm 2 m/s 750 mmHg 48%
    14:00 +30°C° 0 mm 2 m/s 750 mmHg 48%
    15:00 +31°C° 0 mm 2 m/s 750 mmHg 48%
    16:00 +31°C° 0 mm 2 m/s 749 mmHg 49%
    17:00 +30°C° 0.1 mm 2 m/s 749 mmHg 54%
    18:00 +29°C° 0.1 mm 1 m/s 749 mmHg 60%
    19:00 +27°C° 0.1 mm 1 m/s 749 mmHg 66%
    20:00 +26°C° 0.5 mm 2 m/s 749 mmHg 71%
    21:00 +25°C° 0.5 mm 2 m/s 749 mmHg 75%
    22:00 +22°C° 0.5 mm 3 m/s 749 mmHg 79%
    23:00 +22°C° 0.4 mm 3 m/s 750 mmHg 80%

    Demain, 21 Juillet, Dimanche

    Heure Température Précipitation Vent Pression Humidité
    00:00 +22°C° 0.4 mm 3 m/s 750 mmHg 81%
    01:00 +21°C° 0.4 mm 3 m/s 750 mmHg 81%
    02:00 +21°C° 0.5 mm 2 m/s 750 mmHg 83%
    03:00 +20°C° 0.5 mm 2 m/s 750 mmHg 85%
    04:00 +20°C° 0.5 mm 2 m/s 750 mmHg 87%
    05:00 +21°C° 0 mm 2 m/s 751 mmHg 85%
    06:00 +23°C° 0 mm 2 m/s 751 mmHg 82%
    07:00 +24°C° 0 mm 2 m/s 751 mmHg 80%
    08:00 +24°C° 0.4 mm 3 m/s 752 mmHg 77%
    09:00 +25°C° 0.4 mm 4 m/s 752 mmHg 74%
    10:00 +25°C° 0.4 mm 5 m/s 752 mmHg 71%
    11:00 +26°C° 0.4 mm 5 m/s 753 mmHg 66%
    12:00 +27°C° 0.4 mm 5 m/s 753 mmHg 61%
    13:00 +27°C° 0.4 mm 5 m/s 753 mmHg 56%
    14:00 +27°C° 0 mm 5 m/s 753 mmHg 53%
    15:00 +27°C° 0 mm 5 m/s 753 mmHg 51%
    16:00 +27°C° 0 mm 5 m/s 753 mmHg 49%
    17:00 +26°C° 0.1 mm 4 m/s 753 mmHg 56%
    18:00 +25°C° 0.1 mm 3 m/s 754 mmHg 64%
    19:00 +22°C° 0.1 mm 3 m/s 754 mmHg 72%
    20:00 +21°C° 0 mm 2 m/s 754 mmHg 74%
    21:00 +20°C° 0 mm 2 m/s 755 mmHg 77%
    22:00 +19°C° 0 mm 2 m/s 756 mmHg 79%
    23:00 +19°C° 0 mm 1 m/s 756 mmHg 81%

    Après-demain, 22 Juillet, Lundi

    Heure Température Précipitation Vent Pression Humidité
    00:00 +19°C° 0 mm 1 m/s 756 mmHg 82%
    01:00 +18°C° 0 mm 1 m/s 756 mmHg 84%
    02:00 +18°C° 0 mm 1 m/s 756 mmHg 85%
    03:00 +16°C° 0 mm 1 m/s 757 mmHg 87%
    04:00 +16°C° 0 mm 1 m/s 757 mmHg 89%
    05:00 +18°C° 0 mm 1 m/s 757 mmHg 84%
    06:00 +20°C° 0 mm 1 m/s 757 mmHg 80%
    07:00 +21°C° 0 mm 1 m/s 757 mmHg 76%
    08:00 +22°C° 0 mm 1 m/s 757 mmHg 70%
    09:00 +23°C° 0 mm 2 m/s 757 mmHg 63%
    10:00 +25°C° 0 mm 2 m/s 758 mmHg 57%
    11:00 +26°C° 0 mm 2 m/s 757 mmHg 55%
    12:00 +26°C° 0 mm 2 m/s 757 mmHg 53%
    13:00 +27°C° 0 mm 3 m/s 757 mmHg 51%
    14:00 +27°C° 0 mm 2 m/s 757 mmHg 54%
    15:00 +26°C° 0 mm 2 m/s 757 mmHg 57%
    16:00 +25°C° 0 mm 2 m/s 756 mmHg 60%
    17:00 +25°C° 0 mm 1 m/s 756 mmHg 63%
    18:00 +24°C° 0 mm 1 m/s 756 mmHg 66%
    19:00 +23°C° 0 mm 1 m/s 756 mmHg 69%
    20:00 +23°C° 0 mm 1 m/s 756 mmHg 68%
    21:00 +22°C° 0 mm 1 m/s 757 mmHg 68%
    22:00 +20°C° 0 mm 0 m/s 757 mmHg 68%
    23:00 +21°C° 0 mm 1 m/s 757 mmHg 70%

    23 Juillet, Mardi

    Heure Température Précipitation Vent Pression Humidité
    00:00 +20°C° 0 mm 1 m/s 757 mmHg 71%
    01:00 +20°C° 0 mm 1 m/s 756 mmHg 73%
    02:00 +20°C° 0 mm 1 m/s 756 mmHg 73%
    03:00 +19°C° 0 mm 1 m/s 756 mmHg 74%
    04:00 +19°C° 0 mm 1 m/s 756 mmHg 75%
    05:00 +19°C° 0 mm 0 m/s 756 mmHg 71%
    06:00 +20°C° 0 mm 0 m/s 756 mmHg 67%
    07:00 +22°C° 0 mm 0 m/s 756 mmHg 63%
    08:00 +25°C° 0 mm 1 m/s 756 mmHg 58%
    09:00 +27°C° 0 mm 1 m/s 756 mmHg 53%
    10:00 +28°C° 0 mm 1 m/s 756 mmHg 49%
    11:00 +29°C° 0 mm 1 m/s 756 mmHg 46%
    12:00 +30°C° 0 mm 1 m/s 756 mmHg 44%
    13:00 +31°C° 0 mm 2 m/s 755 mmHg 42%
    14:00 +31°C° 0 mm 2 m/s 755 mmHg 43%
    15:00 +31°C° 0 mm 2 m/s 755 mmHg 43%
    16:00 +31°C° 0 mm 2 m/s 755 mmHg 43%
    17:00 +30°C° 0 mm 2 m/s 754 mmHg 49%
    18:00 +29°C° 0 mm 1 m/s 754 mmHg 54%
    19:00 +27°C° 0 mm 1 m/s 754 mmHg 59%
    20:00 +26°C° 0 mm 1 m/s 754 mmHg 62%
    21:00 +23°C° 0 mm 0 m/s 754 mmHg 65%
    22:00 +21°C° 0 mm 0 m/s 755 mmHg 68%
    23:00 +21°C° 0 mm 0 m/s 755 mmHg 69%

    24 Juillet, Mercredi

    Heure Température Précipitation Vent Pression Humidité
    00:00 +20°C° 0 mm 0 m/s 755 mmHg 70%
    01:00 +22°C° 0 mm 1 m/s 755 mmHg 71%
    02:00 +22°C° 0 mm 1 m/s 754 mmHg 72%
    03:00 +22°C° 0 mm 1 m/s 754 mmHg 73%
    04:00 +21°C° 0 mm 1 m/s 754 mmHg 75%
    05:00 +23°C° 0 mm 1 m/s 754 mmHg 71%
    06:00 +24°C° 0 mm 1 m/s 754 mmHg 67%
    07:00 +26°C° 0 mm 1 m/s 755 mmHg 63%
    08:00 +27°C° 0 mm 1 m/s 755 mmHg 58%
    09:00 +29°C° 0 mm 1 m/s 755 mmHg 53%
    10:00 +31°C° 0 mm 1 m/s 755 mmHg 47%
    11:00 +32°C° 0 mm 1 m/s 754 mmHg 44%
    12:00 +32°C° 0 mm 1 m/s 754 mmHg 42%
    13:00 +33°C° 0 mm 1 m/s 754 mmHg 39%
    14:00 +34°C° 0 mm 2 m/s 754 mmHg 39%
    15:00 +34°C° 0 mm 2 m/s 753 mmHg 39%
    16:00 +34°C° 0 mm 2 m/s 753 mmHg 40%
    17:00 +32°C° 0 mm 2 m/s 753 mmHg 46%
    18:00 +30°C° 0 mm 2 m/s 753 mmHg 52%
    19:00 +28°C° 0 mm 2 m/s 753 mmHg 58%
    20:00 +27°C° 0 mm 1 m/s 753 mmHg 59%
    21:00 +26°C° 0 mm 1 m/s 753 mmHg 61%
    22:00 +25°C° 0 mm 1 m/s 753 mmHg 62%
    23:00 +24°C° 0 mm 1 m/s 754 mmHg 64%

    25 Juillet, Jeudi

    Heure Température Précipitation Vent Pression Humidité
    00:00 +24°C° 0 mm 1 m/s 754 mmHg 66%
    01:00 +23°C° 0 mm 2 m/s 754 mmHg 68%
    02:00 +23°C° 0 mm 2 m/s 753 mmHg 68%
    03:00 +21°C° 0 mm 2 m/s 753 mmHg 69%
    04:00 +22°C° 0 mm 1 m/s 753 mmHg 69%
    05:00 +23°C° 0 mm 2 m/s 753 mmHg 67%
    06:00 +24°C° 0 mm 2 m/s 753 mmHg 65%
    07:00 +25°C° 0 mm 2 m/s 754 mmHg 64%
    08:00 +27°C° 0 mm 2 m/s 754 mmHg 59%
    09:00 +29°C° 0 mm 2 m/s 754 mmHg 54%
    10:00 +30°C° 0 mm 3 m/s 754 mmHg 49%
    11:00 +31°C° 0 mm 3 m/s 753 mmHg 45%
    12:00 +33°C° 0 mm 3 m/s 753 mmHg 42%
    13:00 +34°C° 0 mm 3 m/s 753 mmHg 38%
    14:00 +34°C° 0 mm 3 m/s 753 mmHg 39%
    15:00 +34°C° 0 mm 3 m/s 752 mmHg 41%
    16:00 +34°C° 0 mm 4 m/s 752 mmHg 42%
    17:00 +33°C° 0 mm 3 m/s 752 mmHg 49%
    18:00 +30°C° 0 mm 3 m/s 752 mmHg 56%
    19:00 +29°C° 0 mm 3 m/s 751 mmHg 62%
    20:00 +27°C° 0 mm 2 m/s 751 mmHg 65%
    21:00 +26°C° 0 mm 2 m/s 752 mmHg 68%
    22:00 +25°C° 0 mm 2 m/s 752 mmHg 71%
    23:00 +24°C° 0 mm 2 m/s 752 mmHg 71%
    Voir plus